Regional Weather Roundup
Issued by NWS Burlington, VT

Home | Current Version | Previous Version | Text Only | Print | Product List | Glossary On
Versions: 1 2 3 4 5 6 7 8 9 10 11 12 13 14 15 16 17 18 19 20 21 22 23 24 25 26 27 28 29 30 31 32 33 34 35 36 37 38 39 40 41 42 43 44 45 46 47 48 49 50
000
ASUS41 KBTV 221630
RWRBTV
VERMONT REGIONAL WEATHER ROUNDUP
NATIONAL WEATHER SERVICE BURLINGTON VT
1100 AM EST WED FEB 22 2017

NOTE: "FAIR" INDICATES FEW OR NO CLOUDS BELOW 12,000 FEET WITH NO
SIGNIFICANT WEATHER AND/OR OBSTRUCTIONS TO VISIBILITY.

* THESE REPORTS ARE NOT UNDER NWS QUALITY CONTROL AND/OR DO NOT
  REPORT WEATHER SUCH AS PRECIPITATION AND FOG.

VTZ001>019-221700-
_____VERMONT_____


CITY           SKY/WX    TMP DP  RH WIND       PRES   REMARKS
BURLINGTON     PTSUNNY   46  31  55 S10       29.95F
MONTPELIER     MOSUNNY   42  29  59 CALM      29.98F
MORRISVILLE    MOSUNNY   44  24  45 CALM      29.96F
ST. JOHNSBURY*   N/A     40  25  55 MISG      29.94F
LYNDONVILLE*   FAIR      40  25  55 CALM      29.96F
MIDDLEBURY*    CLOUDY    47  21  35 S6        29.94F
RUTLAND*       CLOUDY    47  33  58 SE3       29.95F
SPRINGFIELD    MOSUNNY   43  28  55 CALM      29.97F
HIGHGATE*      FAIR      43  31  62 W5        29.95S
NEWPORT*       FAIR      43  31  62 S5        29.95S
BENNINGTON     CLOUDY    47  30  51 CALM      29.97F
SUTTON*          N/A     39 N/A N/A MISG        N/A
MT. MANSFIELD*   N/A     39 N/A N/A W15         N/A  WCI  31

_____LAKE CHAMPLAIN_____


CITY           SKY/WX    TMP DP  RH WIND       PRES   REMARKS
BURTON ISLAND*   N/A     37  32  81 SW12        N/A  WCI  30
COLCHESTER RF*   N/A     39  34  81 S18         N/A  WCI  30
DIAMOND ISL*     N/A     41  32  70 SW6         N/A

$$

NYZ007-026>031-035-052-083-087-221700-
_____NORTHERN NEW YORK_____


CITY           SKY/WX    TMP DP  RH WIND       PRES   REMARKS
PLATTSBURGH    PTSUNNY   41  31  67 SE10      29.95F
SARANAC LAKE   MOSUNNY   46  36  68 W6        29.88F
MASSENA        CLOUDY    42  35  76 E5        29.95F
OGDENSBURG*    CLOUDY    48  35  61 CALM      29.92F
POTSDAM*       PTSUNNY   46  37  71 CALM      29.92F
WATERTOWN      CLOUDY    50  37  61 NW5       29.93S
FT DRUM        CLOUDY    49  35  56 CALM      29.91S
ALBANY         MOSUNNY   47  32  56 VRB5      29.99F
GLENS FALLS    MOSUNNY   47  32  56 S7        29.97F

$$
NHZ002-005-011-221700-
_____NEW HAMPSHIRE_____


CITY           SKY/WX    TMP DP  RH WIND       PRES   REMARKS
LEBANON        MOSUNNY   44  30  57 CALM      29.96F
KEENE          SUNNY     44  32  62 CALM      29.97F
MT WASHINGTON  PTSUNNY   36   0  21 NW16        N/A  WCI  26
PLYMOUTH       PTSUNNY   47  29  51 CALM      29.94F
WHITEFIELD     CLOUDY    42  23  46 CALM      29.96F

$$

_____REGIONAL QUEBEC LOCATIONS_____


CITY           SKY/WX    TMP DP  RH WIND       PRES   REMARKS
MONTREAL       CLOUDY    37  34  87 CALM      29.96F
QUEBEC CITY    CLOUDY    34  27  75 SW8       29.94S WCI  27
SHERBROOKE     CLOUDY    39  28  65 W7        29.95R

_____REGIONAL ONTARIO LOCATIONS_____


CITY           SKY/WX    TMP DP  RH WIND       PRES   REMARKS
OTTAWA         CLOUDY    37  36  93 SE8       29.91  WCI  31

______KEY______
VSB  - VISIBILITY IN MILES
WCI  - WIND CHILL INDEX
HX   - HEAT INDEX
$$
NNNN




USA.gov is the U.S. government's official web portal to all federal, state and local government web resources and services.